Wind_Speed
29 29 30 30 31 31 31 32 32 32 32 33 33 32 32 31 31 30 30 30 31 32 32 32 32 33 31 30 29 29 29 29 29 28 27 26 27 27 26 25 25 24 25 26 27 29 30 30 30 31 31 31 31 31 31 31 30 30 30 30 30 29 28 28 29 28 26 26 26 26 26 26 25 24
32 33 33 34 34 34 35 35 35 35 35 35 36 35 35 35 34 33 32 32 33 35 35 34 34 35 34 33 32 32 32 32 32 31 30 30 29 29 29 28 27 27 26 25 25 26 28 29 30 30 31 32 32 32 31 32 32 32 32 31 31 30 29 29 29 29 27 27 27 27 28 27 26 26
35 35 36 36 37 37 37 37 37 38 38 38 38 38 38 38 37 37 36 34 34 36 38 38 37 37 36 36 35 35 35 35 35 34 33 33 32 32 31 31 30 30 29 28 27 27 27 27 28 28 29 30 31 32 32 32 33 34 33 32 31 30 30 30 30 29 28 27 27 28 29 28 27 27
36 37 37 37 38 38 39 39 39 40 40 40 40 39 39 39 39 38 38 37 36 37 38 40 40 40 39 38 37 37 37 37 37 36 36 35 35 34 34 33 33 33 32 31 30 29 29 28 28 28 28 28 29 31 32 33 34 35 34 32 31 31 31 31 30 28 27 27 28 28 29 29 28 28
37 37 38 39 39 40 40 40 41 41 41 41 41 41 40 40 40 39 39 38 38 38 39 40 42 42 42 40 40 39 39 39 39 39 38 38 37 37 37 36 36 35 35 34 33 32 31 31 30 30 30 29 28 29 30 32 35 36 34 33 32 31 32 32 30 29 28 28 29 29 29 29 29 29
39 39 39 40 40 40 40 40 41 41 41 41 41 41 41 41 40 40 40 39 38 38 39 41 42 42 43 42 42 42 41 41 41 41 40 40 39 39 39 39 38 38 38 37 36 35 34 33 33 32 32 32 31 31 30 31 34 34 33 34 34 33 32 32 31 30 30 30 30 30 30 30 30 30
40 40 40 40 41 40 40 40 41 40 40 41 41 41 41 41 41 41 41 40 39 38 39 40 41 42 43 43 43 43 44 43 42 42 42 42 41 41 41 41 40 40 40 39 38 38 37 36 35 35 34 33 33 34 33 32 33 32 31 33 34 34 34 33 32 31 32 32 31 31 31 31 31 30
40 40 40 40 41 41 41 40 41 41 41 41 40 40 40 40 41 41 41 41 41 40 39 39 40 41 42 43 44 45 45 45 44 43 43 43 43 43 43 43 42 42 42 41 41 40 39 39 38 37 36 36 36 36 36 35 33 32 31 31 32 34 34 34 34 33 33 33 33 33 33 32 31 31
40 40 40 40 41 41 41 41 41 41 41 41 41 41 40 40 41 41 41 42 42 41 40 39 40 40 41 42 43 45 46 46 45 45 44 44 44 44 44 44 44 44 44 43 43 42 42 41 41 40 39 39 38 38 37 36 35 34 33 31 31 32 33 34 35 35 34 35 35 35 34 33 32 32
41 41 40 40 40 40 40 41 41 41 42 42 42 42 41 41 42 42 42 42 43 43 42 41 41 41 42 42 43 44 46 46 46 46 46 45 45 45 45 45 45 45 45 45 45 45 44 43 43 42 42 41 41 40 40 39 38 37 35 34 33 32 33 33 35 36 36 36 36 36 35 35 34 34
42 41 41 40 40 40 40 40 40 41 41 42 42 42 43 43 43 43 43 44 44 44 44 44 44 43 43 43 44 44 46 46 47 47 47 47 47 47 46 46 46 46 46 46 46 47 47 46 45 44 44 43 43 43 42 41 40 39 38 37 35 34 33 33 34 35 36 37 37 37 36 36 35 35
41 41 41 41 41 40 40 40 40 40 41 41 42 43 44 45 45 45 45 46 46 46 46 46 46 46 46 45 46 46 46 47 48 48 48 48 48 48 48 47 46 46 47 47 46 47 47 47 47 46 45 45 45 45 45 44 42 41 40 39 38 37 35 35 34 35 36 36 37 38 37 37 36 36
40 41 41 41 42 42 42 42 42 42 43 43 43 44 45 46 47 48 48 49 49 48 48 48 48 48 48 48 48 48 48 48 49 50 50 50 49 49 49 48 48 47 47 47 46 46 47 47 46 47 47 46 47 46 46 45 45 44 42 41 40 39 38 37 36 35 35 36 36 37 38 38 38 37
41 42 43 44 44 45 46 46 46 47 47 48 48 48 48 48 49 50 50 51 52 51 51 51 51 51 51 50 50 50 50 50 50 51 51 51 50 50 49 49 49 49 48 48 47 47 47 47 46 46 47 47 48 48 47 47 46 45 44 43 42 41 40 39 38 37 36 36 36 36 37 38 38 38
44 45 46 47 48 49 49 49 49 49 49 50 50 50 49 49 49 49 50 50 51 52 52 52 52 53 52 52 52 52 52 51 51 51 51 51 51 51 51 50 50 50 50 49 48 47 47 47 46 45 46 47 48 49 49 48 47 46 45 44 44 43 42 41 40 39 38 37 36 36 37 38 38 39
47 47 47 48 48 48 47 47 47 48 48 48 49 49 49 50 50 50 50 50 50 51 51 52 52 53 53 53 53 53 53 53 52 52 52 52 52 52 51 51 50 50 50 50 49 47 47 47 46 45 45 46 47 48 49 50 49 48 47 45 44 44 43 43 42 41 40 39 38 37 37 37 38 39
46 45 45 45 45 46 46 47 47 48 48 49 50 50 51 51 51 52 52 52 52 52 52 52 52 53 54 54 54 55 55 54 54 53 53 53 53 53 52 52 51 51 51 51 50 48 47 48 48 46 45 45 46 46 47 48 49 50 49 48 46 45 44 44 43 42 42 41 40 39 38 37 37 38
43 44 44 45 46 47 48 49 49 50 50 50 51 51 51 52 53 53 53 53 53 53 53 53 53 54 54 55 55 56 56 56 56 55 55 54 54 54 54 53 52 52 52 51 51 50 48 49 49 47 46 46 46 46 46 47 48 49 50 50 49 47 45 44 44 44 43 42 42 41 39 38 36 36
45 46 47 48 48 49 50 50 50 50 51 51 51 51 51 52 53 53 54 54 54 54 54 54 54 54 54 55 55 56 57 57 57 57 56 56 56 55 55 54 54 54 53 53 52 50 49 50 50 49 48 48 47 46 46 46 46 47 48 50 51 50 48 46 45 44 44 43 42 42 41 39 38 36
47 48 49 49 50 50 50 50 51 51 51 51 51 51 52 52 53 53 54 55 55 55 55 55 54 54 54 55 55 55 56 56 57 57 57 56 56 56 56 55 55 55 55 55 54 52 50 51 51 50 49 49 49 48 47 47 46 46 47 48 50 51 50 48 46 44 44 44 43 42 42 41 39 38
47 48 48 49 49 49 50 50 51 52 53 52 52 52 53 53 52 51 52 53 54 53 53 53 52 52 52 53 54 54 55 56 57 57 56 56 56 56 56 55 55 56 56 56 56 55 53 52 53 52 51 51 50 49 49 49 48 47 47 47 48 49 50 50 48 46 44 44 44 43 42 42 41 39
47 48 48 49 50 50 51 51 52 53 54 53 53 51 50 49 47 47 48 49 49 48 48 49 49 49 49 50 51 52 54 55 57 57 56 56 56 56 56 55 55 55 55 55 56 56 55 55 55 54 53 52 51 50 50 50 50 49 48 47 47 48 49 49 49 47 45 44 44 44 43 43 42 41
48 49 50 51 52 52 52 53 53 52 51 50 48 46 44 43 42 43 44 43 44 44 44 44 45 45 45 46 47 48 50 52 54 55 55 56 56 56 56 55 55 54 53 54 56 57 55 56 56 56 54 53 52 52 52 51 51 50 50 49 48 48 48 49 49 48 47 45 44 44 44 43 42 41
49 50 51 52 53 53 52 51 49 47 45 44 42 40 39 39 39 39 40 41 42 42 41 40 40 40 40 41 42 43 45 47 49 51 53 54 54 55 55 55 54 53 51 52 54 56 55 55 56 56 55 54 52 52 52 52 52 51 51 50 50 49 49 49 48 48 48 47 45 44 44 43 43 42
49 50 50 49 48 47 45 44 43 42 41 41 40 39 38 38 38 38 38 39 41 40 38 37 36 36 36 38 40 41 42 43 45 47 48 49 50 51 51 52 52 52 51 51 52 54 54 54 54 55 55 54 52 51 51 52 52 52 52 51 51 50 50 49 49 49 48 48 46 45 44 44 43 42
46 45 43 42 41 40 40 40 41 41 41 41 40 39 38 37 37 36 36 36 37 36 34 33 32 34 36 38 41 42 42 42 42 43 43 45 46 47 47 48 48 49 49 50 51 52 52 51 52 52 53 53 52 51 50 50 51 53 53 52 51 51 51 50 49 49 49 48 47 45 44 43 43 43
39 37 36 36 37 38 39 39 39 40 40 41 40 39 38 37 35 33 32 32 31 31 31 32 32 33 36 37 40 42 42 41 40 40 41 41 42 43 44 44 44 44 45 47 49 50 50 49 49 50 51 51 51 51 50 49 50 52 53 52 52 51 51 50 50 50 49 48 47 46 44 43 43 43
34 34 34 35 36 36 37 36 36 37 38 39 39 38 37 34 31 29 28 28 27 28 30 31 31 30 31 32 34 37 38 38 37 38 39 39 39 40 41 41 40 40 40 42 44 46 46 46 46 47 48 48 49 50 49 49 49 50 51 52 52 51 51 51 50 50 50 49 47 46 45 44 43 42
33 34 35 35 34 33 32 32 32 33 34 35 34 33 31 28 25 24 24 25 26 27 28 27 26 26 26 27 28 30 31 31 31 33 34 35 36 36 37 37 38 38 38 39 40 42 43 42 43 43 44 45 46 47 49 49 48 49 50 51 51 51 51 50 50 50 50 49 48 46 45 44 43 41
33 34 34 33 31 29 29 28 29 29 28 27 25 23 21 20 20 21 22 24 24 25 24 24 23 23 24 25 27 28 28 28 28 28 29 30 32 33 34 34 34 35 37 38 40 41 42 42 42 42 42 43 44 45 47 48 49 48 49 49 50 50 50 50 50 50 49 49 48 47 46 44 43 42
32 32 32 31 29 27 27 27 26 26 24 22 20 18 17 18 19 20 21 22 23 23 23 23 23 23 24 25 26 26 26 26 26 25 25 26 28 30 31 31 31 32 34 37 39 41 42 43 42 41 41 41 42 43 44 46 47 47 48 48 49 49 49 50 49 49 49 49 48 47 46 45 44 42
28 29 29 28 26 25 25 25 24 23 22 20 19 18 18 18 18 19 20 20 21 21 21 22 22 22 23 23 23 23 23 23 23 22 22 23 24 26 27 28 28 30 32 35 37 40 42 43 42 41 41 40 40 41 42 42 44 45 46 47 47 47 48 49 49 49 49 48 47 47 47 46 44 43
25 26 25 24 22 22 22 22 21 20 19 18 17 17 17 17 17 17 18 18 19 19 20 20 20 21 21 21 21 21 21 22 22 21 20 20 21 22 23 23 24 26 29 32 34 36 39 41 42 41 40 39 39 39 39 39 40 41 43 45 46 47 47 48 48 48 48 47 47 47 46 46 45 44
24 23 21 20 19 20 20 20 19 17 17 16 16 16 16 17 17 17 17 18 18 18 19 19 20 20 20 21 21 21 21 21 22 21 20 19 19 19 20 20 21 23 25 27 30 33 35 37 39 40 40 39 39 38 38 38 38 39 40 42 43 44 45 46 47 47 47 47 47 46 45 45 45 44
21 19 18 19 19 19 19 18 17 16 16 16 16 16 16 17 17 18 19 19 19 19 19 19 20 20 20 21 21 21 20 20 20 21 20 19 19 18 18 18 20 21 23 24 27 30 32 34 36 37 38 38 38 38 38 38 38 39 40 40 40 41 42 44 45 46 46 46 46 45 44 44 44 43
18 17 18 19 19 19 18 17 17 16 16 16 16 16 16 17 18 19 20 21 21 21 21 21 20 19 19 20 20 20 20 20 19 19 19 19 19 19 19 19 19 20 21 22 24 27 28 30 33 35 36 37 38 38 38 38 39 40 40 40 40 40 40 41 43 44 45 45 45 44 44 43 43 42
18 17 18 18 18 18 17 17 16 17 17 18 18 17 17 18 20 21 22 22 22 22 22 21 20 20 19 19 19 19 19 18 17 18 18 19 19 19 19 19 20 20 21 22 23 25 26 28 30 31 33 35 36 36 37 38 39 38 38 39 39 40 39 39 40 42 44 45 44 44 43 42 42 41
18 17 17 17 17 17 17 17 17 18 19 20 19 18 18 20 22 22 22 22 23 23 23 21 20 19 19 19 19 18 18 17 16 16 17 19 19 19 19 19 20 21 22 22 22 23 25 26 27 28 30 31 32 33 35 36 36 36 36 37 37 38 39 39 38 39 41 43 43 43 42 41 41 41
18 17 17 17 17 17 18 18 19 20 21 21 20 19 20 21 22 22 22 22 22 23 23 22 22 21 20 20 20 19 19 19 18 16 16 19 20 21 20 20 20 21 22 22 23 23 24 24 25 26 28 29 30 31 32 33 33 33 34 34 35 36 37 38 38 38 39 40 41 41 41 41 40 40
18 18 17 17 17 18 19 20 21 21 22 22 21 21 22 22 22 23 24 24 24 24 25 26 26 25 24 22 22 21 21 20 20 19 19 22 24 24 24 23 22 22 22 22 23 23 23 24 24 24 24 25 27 28 29 29 30 30 31 32 32 33 34 36 36 36 37 38 39 40 40 39 39 39
19 18 18 18 18 19 20 21 22 23 23 23 22 22 23 23 23 24 26 27 28 28 30 30 28 27 26 25 24 24 24 23 23 22 22 23 24 24 22 20 21 21 21 23 24 24 23 23 23 22 21 22 24 25 26 27 27 27 28 29 29 29 30 31 33 34 35 36 37 37 38 38 38 38
19 19 19 19 20 21 21 22 22 23 23 23 23 22 23 23 24 25 27 29 30 31 33 32 29 28 28 28 27 26 25 24 25 25 25 26 26 24 20 19 19 19 20 22 25 25 22 20 19 19 19 20 21 23 23 24 23 24 25 26 26 26 27 27 28 29 31 32 34 34 35 35 35 36
20 20 20 21 22 22 22 23 23 23 23 22 22 22 22 22 23 24 27 28 29 31 33 33 33 33 32 31 30 28 26 25 25 27 27 28 27 26 23 21 20 20 20 21 22 23 22 19 17 16 17 19 21 21 20 20 21 22 22 23 24 24 25 26 26 26 27 29 30 31 32 32 32 32
21 21 21 21 22 22 24 25 25 24 23 22 21 22 22 21 22 24 27 29 30 31 33 36 37 36 33 30 28 28 27 27 26 26 27 26 24 22 20 19 19 19 19 18 18 20 19 16 15 15 16 18 19 19 18 19 19 19 19 20 22 23 23 24 25 25 25 26 27 27 28 28 28 29
23 22 21 21 22 24 26 26 27 25 23 22 21 22 22 21 23 25 27 29 31 33 36 40 40 36 31 27 24 23 24 25 25 24 24 22 19 17 17 18 19 18 15 13 15 16 15 14 14 14 15 16 17 17 17 18 18 17 18 20 22 22 22 22 23 23 24 24 25 24 24 25 25 25
Wind_Direction
275 275 275 275 275 276 276 276 277 278 278 279 279 280 279 279 278 277 276 275 274 273 271 270 270 269 268 267 267 266 266 265 265 265 264 264 264 265 266 266 265 264 262 261 260 260 260 260 260 259 260 260 260 259 260 260 260 259 258 258 257 258 259 259 260 258 256 257 259 260 260 261 264 267
275 275 275 275 275 276 276 277 277 277 278 278 279 279 280 280 279 277 275 274 273 273 272 271 269 269 268 267 265 265 265 265 264 264 264 264 264 264 266 266 266 265 264 262 261 261 261 261 261 260 260 260 260 260 260 261 260 258 258 258 258 257 257 258 258 257 255 255 257 259 260 260 261 263
275 275 275 276 277 277 278 278 279 279 279 279 279 279 279 279 279 278 276 273 271 272 273 272 270 268 267 266 265 263 264 264 264 264 264 264 264 265 265 265 265 266 266 265 264 263 263 264 265 264 262 261 261 261 260 260 260 259 257 257 257 257 256 256 256 256 255 255 255 257 260 261 261 263
275 276 277 279 280 281 281 282 282 281 281 280 280 279 279 278 278 277 277 276 273 271 271 272 271 270 268 267 266 264 264 264 264 264 264 264 264 265 264 264 265 265 266 266 266 265 265 265 267 268 267 264 262 262 261 260 259 258 259 260 260 259 259 259 258 258 258 258 257 258 260 262 262 263
279 280 281 281 281 282 282 283 283 283 283 282 282 281 280 279 278 277 276 275 273 272 271 270 271 271 271 269 268 266 265 264 264 264 264 263 263 264 264 264 264 264 264 264 265 266 266 266 267 268 268 267 266 265 263 262 260 259 260 262 262 261 261 260 260 260 260 260 259 259 260 261 262 263
285 285 285 284 284 284 284 283 283 283 283 283 282 282 282 281 280 278 277 275 272 270 269 269 269 270 271 270 269 267 265 264 263 263 263 262 262 262 263 263 263 263 263 263 263 264 265 265 266 267 267 269 269 268 266 265 264 263 261 260 260 260 259 259 259 260 259 259 259 259 259 260 261 262
288 289 288 288 288 287 286 286 285 284 283 282 282 281 281 280 279 278 277 275 273 269 268 267 268 268 269 270 269 268 266 265 263 262 262 262 262 261 262 262 262 263 263 263 263 263 263 264 264 265 265 266 267 268 269 268 267 266 264 262 261 260 259 259 260 259 260 259 259 259 258 258 259 260
289 289 289 288 288 287 286 285 284 284 283 282 281 280 278 278 276 276 275 275 273 271 268 267 266 266 266 268 268 268 268 266 265 263 262 262 262 262 261 261 261 262 262 263 263 263 263 263 263 264 264 265 265 266 268 270 270 270 268 266 264 261 259 258 258 259 259 260 259 258 258 258 258 259
289 289 288 287 286 286 285 284 283 282 281 280 279 278 277 276 275 274 274 274 273 272 271 269 268 267 266 266 266 267 268 267 267 266 264 263 262 262 261 261 261 261 261 261 262 262 261 262 262 262 263 263 264 265 266 267 268 268 268 267 265 263 261 258 257 257 258 258 258 258 258 258 258 258
289 288 287 286 285 284 283 283 282 282 281 280 279 278 278 277 276 275 275 275 274 273 272 271 271 270 269 267 267 267 268 268 268 268 267 265 263 262 262 261 261 261 261 261 261 261 260 259 259 260 261 261 262 263 264 265 265 266 266 267 266 266 264 261 259 257 257 257 257 258 258 257 257 257
289 288 287 286 285 284 283 282 282 281 281 281 281 281 280 279 278 278 277 277 276 275 274 274 273 272 272 271 269 269 269 269 269 268 268 267 266 264 263 262 262 262 261 261 261 261 261 261 260 259 259 259 260 260 261 262 263 263 264 265 265 266 266 265 263 261 259 258 258 258 258 257 257 256
289 288 288 287 287 286 285 284 283 282 282 281 281 281 281 280 280 279 279 278 277 277 276 276 275 274 273 272 271 269 269 269 268 268 268 268 267 267 265 264 263 263 262 261 260 260 260 261 261 261 260 259 259 259 259 260 260 261 261 262 263 264 265 265 265 264 262 260 259 258 257 257 256 256
290 289 289 289 288 288 287 287 286 285 284 283 282 281 281 281 281 280 280 279 279 278 277 276 276 274 273 272 271 270 269 268 268 268 268 268 267 267 267 266 265 263 262 262 262 260 260 259 260 261 262 261 260 259 258 258 258 259 259 260 260 261 262 263 264 264 264 262 261 259 257 256 256 256
292 291 290 290 289 288 288 287 287 287 286 285 284 283 282 281 280 279 279 279 279 278 277 276 275 274 273 273 271 270 269 268 268 267 267 267 267 266 266 266 266 265 264 263 262 262 262 261 260 260 260 261 261 260 259 259 258 257 257 258 258 259 259 260 262 262 263 263 262 260 258 256 256 256
292 291 290 290 289 289 289 288 288 287 286 286 285 284 283 282 280 279 278 277 277 277 277 276 275 274 273 272 271 270 269 268 267 266 266 266 265 265 265 265 265 265 265 264 263 263 263 262 261 260 259 259 260 261 261 260 259 258 257 256 256 257 257 258 259 260 261 261 262 261 259 257 256 255
292 291 291 291 290 290 289 289 288 287 286 285 285 284 283 282 282 281 279 278 277 276 275 275 274 273 272 272 271 270 269 268 266 265 265 264 264 263 263 263 262 262 263 263 262 261 261 262 262 261 260 259 258 259 259 260 261 261 260 258 256 256 256 256 257 257 258 260 261 261 260 258 257 256
292 292 291 291 291 290 289 288 288 287 286 286 285 284 284 283 282 281 280 279 278 276 275 274 273 272 272 271 270 270 269 268 267 266 265 264 263 262 262 261 261 261 261 261 261 260 259 260 260 260 259 259 258 258 258 258 258 259 260 260 259 257 255 255 255 256 256 257 259 259 259 259 258 257
293 293 292 292 292 291 290 290 289 288 288 287 286 285 284 284 283 282 280 279 278 276 275 274 272 272 271 270 270 269 268 267 266 265 264 264 263 262 262 261 261 260 260 260 260 259 258 258 258 258 257 257 257 257 257 257 257 256 257 258 259 259 257 255 254 255 255 255 256 258 259 259 258 258
296 295 295 294 293 292 292 291 290 289 288 287 287 285 284 283 282 282 280 279 278 277 276 275 274 272 271 270 269 268 267 267 266 265 264 263 262 261 261 261 260 260 260 259 258 258 257 258 258 257 256 255 255 256 256 256 256 255 255 255 257 258 259 257 254 254 254 254 254 256 257 258 258 257
296 295 295 294 293 293 292 291 290 289 288 287 286 285 284 283 282 282 281 280 279 278 277 276 275 273 272 270 269 268 267 266 265 264 264 263 262 261 260 259 259 259 259 259 258 257 256 256 256 256 254 254 254 254 255 255 254 255 254 254 254 255 257 258 257 254 253 253 253 253 255 256 257 257
296 296 295 294 293 292 291 290 289 288 287 286 285 285 284 284 283 283 281 280 279 279 278 276 275 274 272 271 270 269 267 266 265 264 264 263 262 261 260 259 258 257 257 258 258 257 255 254 254 254 254 254 253 253 253 253 253 253 253 253 253 253 254 257 258 256 254 253 253 252 253 254 255 256
298 296 295 294 292 291 290 289 288 287 287 287 286 286 285 285 284 282 281 281 281 280 279 278 276 275 273 272 270 269 268 267 266 265 263 262 261 261 260 259 257 256 256 256 256 256 255 254 254 253 252 253 253 252 252 252 252 252 252 252 253 253 253 254 256 257 255 253 252 252 252 252 253 254
297 296 294 293 292 291 290 289 289 289 289 288 288 288 287 286 285 283 283 283 283 282 281 280 278 276 275 273 271 270 268 267 266 264 263 261 261 260 260 259 258 257 256 256 255 255 253 253 253 253 252 251 251 252 252 252 251 251 251 251 251 252 252 253 254 255 256 254 253 252 252 252 252 252
296 295 295 294 293 293 293 293 293 292 292 291 291 290 289 287 286 285 285 286 286 285 283 282 280 279 277 275 274 272 270 268 266 264 263 262 260 260 259 258 258 257 256 254 255 255 254 252 252 253 252 251 250 250 251 251 251 251 250 250 249 250 251 252 253 254 255 255 254 252 251 251 251 251
297 297 296 296 296 296 296 297 297 297 296 295 294 293 290 289 287 286 286 286 285 285 284 282 280 280 279 278 276 273 271 270 268 266 264 263 262 260 259 258 257 257 255 254 254 254 254 253 253 252 252 251 249 248 248 250 250 250 250 249 249 249 249 250 251 253 253 254 254 253 252 251 251 250
300 300 299 299 299 299 300 300 300 300 299 297 294 292 290 288 287 286 285 284 283 283 283 281 280 280 279 277 276 275 275 273 272 270 267 264 262 261 259 258 256 255 254 253 253 253 253 253 253 252 252 252 250 248 247 247 249 249 249 249 248 248 248 248 249 251 252 253 254 254 253 251 250 250
304 303 302 302 302 302 302 302 301 300 298 295 293 291 289 287 286 285 285 283 281 281 281 281 281 280 278 275 275 276 277 277 274 272 269 266 263 261 260 258 257 255 253 253 253 253 253 253 253 253 252 251 251 249 247 246 246 248 249 248 247 247 247 247 247 248 250 251 252 253 252 251 249 249
307 306 305 306 306 306 305 305 304 303 301 299 296 293 291 289 286 285 285 284 282 281 281 282 282 282 281 280 279 279 280 279 275 272 270 268 266 264 261 259 258 256 254 253 253 253 253 253 252 253 253 252 251 250 249 247 246 246 247 248 247 247 246 246 246 247 248 249 250 251 251 251 250 248
309 310 311 311 310 309 309 309 309 309 307 304 300 296 293 291 288 287 287 286 285 283 282 282 283 284 285 288 288 287 286 283 278 274 271 270 269 267 265 262 259 257 255 253 252 252 252 252 252 252 253 253 252 251 249 248 246 245 246 247 247 247 246 245 245 246 246 247 249 249 250 250 250 248
314 315 315 314 314 313 313 314 315 316 315 313 308 302 297 293 291 290 290 289 288 287 287 286 286 287 289 290 291 291 290 288 283 279 276 273 270 268 266 263 261 258 255 252 251 250 251 251 251 251 252 253 253 251 249 248 247 246 245 245 246 247 246 245 244 245 245 246 247 248 249 250 249 248
316 317 317 317 317 317 318 319 320 321 321 320 317 312 306 301 298 297 295 294 294 294 294 292 291 290 290 289 289 289 289 288 287 284 281 277 272 268 266 263 261 258 255 252 250 249 249 249 249 249 250 251 252 251 249 247 246 246 245 245 245 245 246 245 244 244 245 245 245 246 248 248 249 248
319 320 321 320 319 318 319 320 321 323 323 323 322 320 316 312 308 305 303 302 301 301 301 300 297 295 292 290 289 289 288 288 287 286 283 279 275 272 269 266 263 259 257 254 251 248 247 247 247 247 247 248 250 251 250 248 246 245 245 245 245 244 245 245 245 244 244 244 244 245 246 247 247 247
326 325 324 323 322 322 322 323 324 326 327 328 328 327 325 323 321 318 315 312 309 307 304 301 299 298 296 295 293 293 292 291 290 288 284 281 277 274 272 269 265 261 257 254 252 248 245 244 244 244 245 246 248 250 250 249 247 246 245 245 245 244 244 244 244 244 244 243 244 244 245 245 246 246
330 327 327 329 330 328 327 327 329 332 335 336 338 338 338 337 335 333 329 325 321 316 311 306 302 299 297 296 295 294 294 293 291 290 288 285 281 277 274 271 267 263 259 255 252 248 245 242 242 243 244 245 247 248 249 250 249 248 246 246 245 245 244 244 244 244 244 243 243 244 244 245 245 245
331 330 332 336 336 334 333 334 337 341 343 345 346 346 345 343 341 338 335 331 327 322 318 313 309 304 299 295 294 294 294 292 291 291 290 288 286 282 278 273 268 264 261 257 253 250 247 244 243 244 245 246 247 248 248 249 249 249 248 247 246 245 244 244 243 243 243 243 243 243 244 245 245 245
333 336 340 342 342 341 341 342 344 345 345 345 344 343 343 342 340 338 334 331 327 323 319 314 311 308 304 300 295 293 292 292 291 290 290 289 287 285 282 278 272 268 264 260 256 252 249 247 246 246 247 248 248 248 248 248 248 249 248 247 245 244 244 244 243 242 242 242 242 242 243 244 245 245
340 343 346 347 347 348 347 346 344 343 342 340 338 338 338 338 338 339 338 336 334 333 330 324 318 314 311 308 301 294 290 289 289 290 290 289 289 287 285 281 278 273 268 262 259 255 252 248 247 247 247 248 248 248 248 247 247 247 246 246 245 244 244 245 244 242 241 241 241 241 242 243 244 245
344 347 348 348 348 348 346 343 341 341 340 338 336 335 333 335 340 344 344 342 342 344 345 342 335 327 322 318 312 303 294 289 287 290 294 296 294 291 287 283 279 275 271 266 262 258 255 251 249 247 246 246 246 247 248 247 247 246 246 246 246 245 244 245 245 244 241 240 240 241 242 242 243 244
343 345 345 346 345 344 343 342 340 339 338 338 337 334 333 337 344 348 348 345 344 344 344 343 340 336 331 326 322 315 306 296 288 286 288 291 291 290 290 287 282 277 274 269 264 260 257 254 250 247 246 245 245 246 248 248 247 246 246 247 247 246 245 244 245 244 241 239 239 240 241 242 243 244
343 343 342 343 344 344 344 343 341 338 337 338 338 335 335 339 344 346 345 343 339 334 330 328 327 324 323 322 319 317 313 306 298 289 282 279 280 283 286 286 283 278 274 270 265 260 256 253 250 249 248 248 247 247 247 247 246 245 245 246 246 245 243 242 242 241 240 238 237 238 239 241 242 243
343 344 343 343 344 345 344 342 340 338 337 337 338 337 336 337 339 340 340 339 335 330 326 325 323 320 316 313 310 307 304 302 300 296 289 283 280 280 281 285 285 281 274 268 263 259 256 254 253 252 251 249 247 245 243 243 244 244 244 245 245 243 241 239 239 238 238 237 237 237 239 240 241 242
339 342 342 340 339 340 339 337 336 335 335 336 337 337 336 335 336 337 338 338 336 332 329 328 327 323 317 312 307 301 296 291 289 289 287 284 280 276 276 282 289 288 281 271 262 256 255 254 253 252 250 247 244 241 240 241 242 242 242 242 242 240 239 238 237 237 237 237 237 238 238 239 240 241
336 337 338 338 338 340 339 337 336 333 332 333 334 335 334 333 334 337 337 338 338 335 331 329 327 324 320 314 308 303 297 290 284 281 281 282 280 275 272 276 282 285 285 276 261 251 249 249 246 245 243 241 239 238 236 237 239 240 239 240 241 238 236 235 235 235 236 236 237 237 238 238 239 240
340 340 341 342 342 342 342 341 339 336 334 333 333 334 334 334 335 336 337 339 339 337 333 331 330 329 327 322 314 306 300 294 288 283 282 283 281 275 270 272 276 279 281 275 255 243 243 245 243 241 240 238 238 237 233 231 233 235 235 237 238 237 235 233 233 233 234 234 235 235 235 236 238 239
345 345 344 343 341 340 341 342 341 340 337 336 337 337 337 337 336 336 337 340 342 341 339 338 338 338 336 333 326 316 304 295 290 287 285 284 280 272 268 273 277 277 274 262 243 237 239 241 237 236 236 235 235 234 231 228 228 228 228 230 232 233 233 233 233 233 232 233 233 233 233 233 235 237
Height
5890 5890 5889 5889 5888 5888 5887 5887 5886 5886 5885 5884 5884 5884 5883 5883 5884 5883 5883 5882 5881 5880 5879 5879 5878 5878 5878 5879 5878 5878 5877 5877 5876 5876 5877 5877 5876 5876 5876 5877 5877 5877 5878 5878 5879 5879 5880 5880 5880 5881 5881 5882 5882 5883 5884 5884 5885 5885 5886 5886 5887 5888 5888 5889 5890 5890 5890 5889 5890 5891 5891 5892 5893 5893
5887 5886 5886 5885 5884 5884 5883 5883 5882 5882 5881 5880 5880 5879 5879 5879 5879 5879 5879 5879 5877 5875 5874 5875 5875 5874 5874 5874 5875 5874 5873 5873 5872 5873 5873 5873 5873 5873 5873 5873 5873 5873 5874 5874 5875 5875 5875 5876 5876 5877 5878 5878 5879 5880 5880 5881 5881 5881 5882 5883 5883 5884 5885 5886 5887 5887 5886 5886 5886 5888 5888 5889 5889 5890
5882 5882 5881 5881 5880 5879 5879 5878 5877 5877 5876 5876 5875 5875 5874 5874 5873 5874 5874 5875 5874 5872 5870 5869 5869 5869 5869 5869 5870 5870 5869 5869 5869 5869 5869 5869 5869 5870 5870 5870 5870 5870 5870 5870 5871 5871 5872 5872 5872 5873 5873 5874 5875 5876 5876 5877 5877 5876 5877 5879 5879 5880 5881 5883 5884 5883 5882 5882 5883 5884 5885 5886 5886 5887
5878 5877 5876 5876 5875 5874 5873 5873 5872 5871 5871 5870 5870 5869 5869 5868 5868 5868 5868 5869 5870 5869 5866 5865 5864 5863 5864 5864 5864 5865 5865 5864 5864 5865 5865 5865 5865 5865 5865 5866 5866 5866 5866 5866 5867 5867 5868 5868 5869 5869 5869 5870 5871 5871 5871 5872 5872 5871 5872 5874 5876 5876 5877 5878 5879 5878 5878 5878 5879 5880 5882 5883 5883 5884
5873 5873 5871 5871 5870 5869 5869 5868 5867 5866 5865 5865 5864 5863 5863 5863 5862 5862 5863 5863 5864 5864 5862 5861 5859 5858 5858 5859 5859 5859 5859 5859 5859 5859 5860 5860 5860 5860 5860 5860 5861 5861 5862 5862 5863 5863 5864 5865 5865 5866 5866 5865 5866 5867 5867 5868 5867 5868 5870 5871 5872 5873 5873 5874 5874 5873 5874 5875 5876 5877 5878 5879 5880 5881
5868 5867 5866 5865 5865 5864 5863 5862 5862 5861 5860 5859 5858 5857 5857 5857 5856 5856 5856 5857 5858 5858 5857 5856 5855 5854 5853 5853 5853 5853 5853 5854 5853 5854 5854 5854 5855 5855 5855 5855 5855 5856 5856 5857 5858 5859 5860 5860 5861 5862 5862 5862 5862 5862 5863 5863 5862 5864 5867 5867 5867 5869 5870 5870 5870 5870 5871 5872 5873 5874 5874 5875 5876 5877
5862 5862 5860 5859 5858 5858 5857 5856 5855 5855 5854 5853 5853 5852 5851 5850 5850 5849 5849 5850 5850 5851 5851 5850 5849 5849 5848 5847 5847 5846 5847 5847 5848 5848 5848 5848 5849 5849 5849 5850 5850 5850 5851 5852 5853 5854 5855 5856 5856 5857 5858 5858 5858 5858 5859 5859 5859 5860 5863 5863 5863 5864 5865 5866 5866 5867 5867 5868 5869 5870 5871 5872 5873 5874
5857 5856 5855 5854 5853 5852 5852 5850 5849 5849 5848 5847 5847 5846 5845 5844 5844 5843 5843 5843 5843 5844 5845 5844 5844 5843 5843 5842 5841 5840 5840 5841 5841 5842 5842 5843 5843 5844 5844 5844 5845 5845 5845 5846 5847 5848 5849 5850 5851 5852 5853 5854 5854 5853 5854 5856 5856 5857 5859 5860 5860 5860 5860 5861 5862 5863 5864 5864 5865 5866 5867 5868 5869 5870
5853 5852 5850 5849 5848 5847 5846 5845 5844 5843 5842 5841 5841 5840 5839 5839 5838 5837 5837 5837 5837 5837 5838 5838 5838 5837 5837 5837 5836 5834 5833 5834 5835 5836 5836 5837 5837 5838 5838 5839 5839 5840 5840 5841 5841 5842 5843 5844 5845 5847 5848 5848 5849 5849 5849 5851 5852 5853 5854 5856 5856 5856 5857 5857 5858 5859 5860 5860 5861 5862 5863 5864 5865 5866
5847 5846 5845 5844 5843 5842 5840 5839 5838 5837 5836 5835 5834 5834 5833 5832 5832 5831 5831 5830 5830 5830 5831 5831 5831 5831 5831 5831 5830 5829 5828 5828 5828 5829 5829 5830 5831 5831 5832 5833 5833 5834 5834 5835 5835 5836 5837 5838 5839 5840 5842 5843 5843 5844 5844 5845 5846 5847 5849 5850 5851 5852 5852 5852 5853 5854 5855 5856 5857 5858 5859 5860 5861 5862
5842 5840 5839 5838 5837 5836 5835 5834 5833 5831 5830 5829 5828 5828 5827 5826 5825 5825 5825 5824 5824 5824 5824 5824 5824 5824 5824 5824 5824 5823 5822 5822 5822 5822 5822 5823 5824 5824 5825 5826 5827 5827 5828 5829 5829 5830 5831 5831 5833 5834 5835 5837 5837 5838 5839 5840 5841 5842 5843 5844 5845 5846 5847 5848 5849 5850 5851 5852 5853 5854 5855 5856 5857 5858
5836 5835 5834 5832 5831 5830 5829 5828 5827 5826 5825 5824 5823 5822 5820 5819 5819 5818 5818 5817 5817 5817 5817 5817 5817 5817 5817 5817 5817 5816 5816 5816 5815 5815 5815 5816 5817 5817 5818 5820 5820 5820 5821 5822 5823 5824 5824 5825 5826 5827 5829 5830 5831 5832 5833 5834 5835 5836 5837 5838 5839 5841 5842 5843 5844 5845 5846 5847 5848 5849 5850 5851 5852 5854
5831 5829 5828 5826 5825 5823 5822 5821 5820 5819 5818 5818 5817 5816 5815 5813 5812 5811 5811 5810 5810 5810 5810 5809 5809 5809 5809 5809 5809 5809 5809 5809 5808 5808 5808 5809 5810 5810 5811 5812 5813 5813 5814 5815 5816 5817 5818 5819 5820 5821 5822 5823 5824 5825 5826 5828 5829 5830 5832 5833 5834 5836 5837 5838 5839 5840 5841 5842 5843 5845 5846 5847 5848 5849
5825 5823 5822 5820 5819 5817 5816 5815 5814 5812 5811 5810 5809 5809 5808 5807 5806 5805 5804 5802 5802 5802 5802 5802 5801 5801 5801 5801 5800 5801 5801 5801 5801 5801 5801 5802 5803 5803 5804 5805 5805 5805 5807 5808 5809 5810 5810 5812 5814 5815 5816 5816 5816 5818 5819 5821 5823 5824 5826 5828 5829 5831 5832 5833 5834 5835 5837 5838 5839 5840 5841 5842 5843 5844
5819 5818 5816 5814 5812 5811 5809 5808 5807 5805 5804 5802 5801 5800 5799 5798 5797 5797 5796 5795 5794 5794 5793 5793 5792 5792 5792 5792 5792 5792 5792 5792 5793 5793 5794 5794 5795 5795 5797 5798 5798 5797 5798 5800 5803 5804 5804 5805 5807 5809 5809 5810 5810 5811 5812 5813 5815 5817 5819 5821 5823 5825 5826 5828 5829 5830 5831 5833 5834 5835 5836 5837 5838 5840
5814 5812 5810 5808 5806 5804 5802 5801 5799 5798 5797 5795 5794 5792 5791 5790 5789 5788 5787 5787 5787 5786 5785 5785 5784 5784 5783 5783 5783 5783 5783 5783 5784 5785 5785 5786 5787 5788 5789 5790 5791 5790 5791 5793 5795 5797 5797 5798 5799 5802 5803 5803 5804 5805 5805 5807 5808 5810 5812 5814 5816 5818 5820 5822 5823 5825 5826 5827 5829 5830 5831 5832 5834 5835
5807 5805 5803 5801 5799 5797 5796 5794 5792 5791 5789 5788 5786 5785 5783 5782 5781 5780 5779 5778 5778 5777 5777 5777 5776 5775 5775 5775 5775 5774 5774 5775 5775 5776 5777 5777 5778 5780 5781 5782 5783 5783 5784 5785 5787 5789 5791 5791 5792 5794 5795 5796 5797 5798 5800 5801 5802 5804 5805 5807 5809 5812 5814 5816 5817 5819 5820 5822 5823 5825 5826 5827 5829 5830
5801 5799 5797 5795 5793 5791 5788 5786 5785 5783 5782 5780 5779 5777 5776 5774 5772 5771 5770 5769 5768 5768 5768 5768 5768 5767 5766 5766 5766 5765 5765 5765 5766 5767 5768 5769 5770 5771 5772 5774 5775 5775 5776 5777 5779 5782 5784 5783 5784 5787 5788 5788 5790 5792 5793 5795 5796 5797 5799 5800 5802 5804 5807 5809 5811 5813 5815 5816 5818 5819 5821 5822 5824 5825
5795 5792 5790 5788 5786 5784 5781 5779 5777 5775 5774 5772 5771 5770 5768 5766 5764 5763 5761 5760 5759 5759 5759 5759 5758 5758 5758 5757 5757 5756 5755 5756 5757 5757 5759 5760 5761 5762 5764 5765 5767 5767 5768 5769 5771 5775 5777 5776 5777 5780 5781 5781 5783 5785 5786 5788 5789 5791 5793 5794 5796 5797 5799 5802 5805 5807 5809 5810 5812 5814 5815 5817 5819 5820
5788 5786 5783 5781 5779 5777 5774 5772 5769 5768 5766 5765 5764 5762 5761 5759 5757 5755 5753 5751 5750 5750 5750 5749 5749 5749 5749 5748 5748 5747 5747 5747 5747 5748 5749 5751 5751 5753 5755 5757 5758 5759 5760 5760 5762 5766 5769 5768 5769 5771 5773 5774 5776 5778 5779 5781 5782 5784 5786 5788 5789 5791 5793 5795 5798 5800 5803 5805 5806 5808 5810 5812 5813 5815
5782 5779 5776 5774 5772 5769 5767 5765 5762 5760 5758 5757 5756 5754 5753 5751 5750 5747 5744 5742 5742 5741 5741 5740 5740 5740 5740 5739 5738 5738 5738 5737 5737 5738 5740 5741 5741 5743 5746 5748 5750 5750 5752 5753 5754 5757 5760 5760 5761 5762 5764 5766 5769 5771 5772 5773 5775 5777 5779 5781 5783 5785 5787 5789 5791 5793 5796 5799 5800 5802 5804 5806 5808 5810
5775 5772 5769 5767 5764 5762 5760 5758 5755 5752 5750 5749 5748 5746 5745 5744 5742 5739 5736 5735 5734 5733 5732 5732 5731 5731 5730 5730 5729 5729 5728 5728 5728 5729 5731 5732 5732 5734 5737 5739 5741 5742 5744 5745 5745 5747 5751 5752 5752 5754 5757 5759 5762 5764 5765 5766 5768 5770 5772 5774 5776 5778 5780 5782 5784 5787 5789 5792 5794 5796 5798 5800 5802 5804
5769 5765 5762 5759 5756 5754 5752 5750 5747 5745 5743 5741 5740 5738 5737 5736 5734 5732 5730 5729 5727 5726 5725 5724 5723 5722 5721 5720 5720 5720 5719 5719 5719 5719 5721 5722 5723 5725 5727 5729 5731 5734 5737 5737 5736 5738 5743 5743 5743 5746 5750 5753 5755 5756 5757 5759 5760 5762 5765 5767 5770 5772 5774 5776 5778 5780 5783 5785 5787 5790 5792 5794 5796 5799
5762 5759 5755 5752 5749 5746 5744 5741 5739 5737 5735 5733 5732 5731 5730 5728 5727 5725 5724 5722 5720 5718 5718 5717 5715 5715 5714 5713 5712 5712 5711 5711 5710 5710 5711 5713 5714 5716 5719 5720 5722 5726 5730 5730 5727 5729 5733 5735 5736 5738 5741 5745 5749 5750 5750 5751 5753 5755 5757 5760 5763 5765 5767 5770 5772 5774 5776 5778 5781 5783 5786 5788 5790 5793
5755 5752 5748 5745 5741 5739 5736 5734 5732 5730 5728 5726 5724 5724 5722 5721 5720 5719 5718 5716 5714 5712 5711 5711 5709 5709 5707 5706 5705 5704 5703 5703 5703 5703 5704 5705 5706 5708 5710 5712 5714 5717 5721 5721 5720 5721 5724 5727 5729 5731 5733 5737 5741 5743 5743 5744 5746 5747 5749 5753 5755 5758 5760 5763 5765 5768 5770 5772 5774 5777 5779 5782 5784 5786
5748 5745 5741 5738 5735 5732 5730 5728 5726 5723 5721 5719 5717 5717 5716 5715 5714 5713 5712 5711 5708 5706 5705 5705 5704 5703 5701 5699 5698 5697 5697 5697 5697 5697 5698 5698 5699 5700 5702 5704 5706 5709 5711 5712 5712 5713 5716 5719 5722 5723 5725 5729 5732 5735 5737 5739 5739 5739 5742 5745 5748 5750 5753 5757 5759 5761 5763 5766 5768 5770 5773 5776 5778 5780
5741 5738 5735 5733 5730 5728 5725 5723 5720 5718 5715 5713 5711 5710 5709 5708 5708 5707 5706 5705 5703 5702 5701 5700 5699 5698 5695 5694 5693 5692 5691 5691 5691 5691 5691 5692 5692 5693 5695 5696 5698 5701 5703 5704 5705 5706 5709 5712 5714 5716 5718 5721 5723 5727 5730 5732 5733 5733 5734 5737 5740 5743 5746 5749 5752 5755 5757 5759 5762 5764 5766 5769 5771 5774
5736 5733 5731 5728 5726 5723 5721 5718 5715 5712 5709 5706 5704 5703 5702 5702 5701 5701 5700 5699 5698 5698 5696 5695 5694 5692 5690 5688 5688 5687 5685 5685 5685 5685 5685 5686 5686 5687 5689 5690 5692 5694 5696 5697 5698 5700 5702 5705 5707 5709 5711 5713 5716 5719 5722 5725 5726 5727 5728 5730 5733 5736 5739 5742 5745 5748 5750 5752 5755 5758 5760 5762 5765 5768
5731 5729 5726 5724 5722 5719 5716 5714 5711 5708 5704 5701 5698 5697 5696 5696 5695 5695 5695 5694 5693 5692 5691 5690 5688 5687 5685 5684 5683 5682 5680 5679 5679 5679 5679 5680 5681 5682 5683 5684 5686 5688 5689 5691 5693 5694 5695 5698 5700 5702 5704 5706 5709 5711 5714 5716 5719 5720 5722 5723 5726 5729 5732 5735 5738 5741 5743 5746 5749 5751 5754 5756 5759 5762
5728 5725 5722 5720 5717 5715 5712 5710 5708 5705 5701 5697 5695 5693 5692 5692 5691 5691 5690 5689 5689 5687 5686 5685 5684 5682 5681 5680 5679 5677 5676 5675 5674 5674 5674 5675 5676 5676 5677 5678 5680 5681 5683 5685 5686 5687 5689 5691 5694 5696 5698 5699 5701 5704 5706 5708 5711 5713 5715 5717 5719 5722 5725 5728 5731 5734 5736 5739 5742 5745 5748 5750 5753 5755
5725 5722 5719 5716 5713 5711 5709 5707 5705 5702 5699 5696 5693 5692 5691 5690 5689 5688 5687 5686 5685 5683 5682 5681 5680 5678 5677 5676 5675 5673 5672 5671 5670 5670 5670 5670 5670 5670 5671 5673 5674 5675 5676 5678 5680 5681 5683 5684 5687 5689 5691 5693 5694 5696 5698 5701 5704 5707 5708 5711 5713 5716 5718 5721 5724 5727 5730 5733 5736 5739 5741 5744 5746 5749
5722 5719 5716 5714 5711 5709 5707 5704 5702 5700 5697 5695 5692 5691 5689 5688 5687 5686 5685 5683 5682 5680 5679 5677 5676 5675 5674 5672 5671 5670 5668 5667 5666 5666 5666 5666 5665 5665 5666 5668 5669 5670 5671 5672 5673 5674 5676 5678 5680 5682 5685 5686 5688 5690 5692 5695 5698 5700 5702 5704 5707 5710 5712 5714 5717 5720 5723 5727 5730 5732 5735 5737 5740 5742
5720 5717 5714 5712 5709 5707 5705 5703 5700 5698 5696 5693 5691 5689 5688 5686 5685 5683 5682 5680 5679 5677 5676 5674 5673 5672 5670 5669 5668 5667 5665 5664 5663 5663 5662 5662 5662 5661 5662 5663 5664 5664 5665 5666 5666 5668 5670 5672 5674 5676 5679 5681 5683 5685 5687 5689 5692 5694 5696 5697 5700 5703 5706 5708 5711 5714 5717 5721 5724 5726 5728 5731 5733 5736
5718 5715 5713 5710 5708 5705 5703 5701 5699 5696 5694 5692 5690 5688 5686 5684 5683 5681 5680 5678 5676 5675 5673 5671 5670 5669 5667 5666 5665 5663 5662 5661 5660 5659 5659 5659 5658 5658 5658 5659 5659 5659 5660 5660 5661 5662 5664 5666 5669 5671 5673 5676 5678 5680 5682 5684 5686 5688 5690 5692 5695 5697 5700 5702 5705 5708 5711 5715 5717 5720 5722 5725 5727 5730
5716 5714 5711 5708 5706 5704 5701 5699 5697 5695 5693 5691 5689 5687 5685 5683 5681 5679 5678 5676 5674 5672 5670 5669 5667 5666 5664 5663 5661 5660 5659 5658 5657 5656 5656 5655 5655 5655 5655 5655 5655 5655 5655 5656 5657 5658 5660 5662 5664 5666 5669 5671 5673 5675 5677 5679 5681 5682 5684 5687 5689 5692 5693 5696 5699 5702 5705 5709 5711 5714 5717 5719 5721 5724
5715 5712 5709 5707 5705 5703 5700 5698 5696 5694 5692 5690 5688 5686 5684 5682 5680 5678 5676 5674 5672 5670 5668 5666 5664 5663 5661 5660 5658 5657 5656 5655 5654 5653 5652 5652 5651 5651 5651 5651 5651 5651 5652 5652 5653 5654 5656 5658 5660 5662 5664 5666 5668 5670 5672 5674 5675 5677 5679 5681 5684 5686 5688 5690 5693 5696 5699 5702 5705 5709 5711 5713 5715 5719
5713 5710 5708 5706 5704 5702 5700 5698 5696 5693 5691 5689 5687 5685 5683 5681 5678 5676 5674 5672 5669 5667 5665 5663 5661 5659 5658 5656 5655 5653 5652 5651 5651 5650 5649 5648 5648 5648 5648 5648 5648 5648 5648 5649 5649 5650 5652 5654 5655 5657 5659 5660 5662 5664 5666 5668 5669 5672 5674 5676 5678 5680 5683 5685 5688 5691 5694 5696 5700 5703 5706 5708 5710 5713
5711 5709 5707 5705 5703 5701 5699 5697 5695 5692 5690 5687 5685 5683 5681 5679 5676 5674 5671 5669 5667 5665 5663 5660 5659 5657 5655 5653 5652 5650 5649 5648 5648 5647 5646 5645 5645 5645 5645 5645 5645 5644 5645 5645 5646 5647 5648 5649 5651 5652 5653 5655 5657 5659 5660 5662 5665 5667 5669 5671 5673 5676 5678 5680 5683 5685 5688 5691 5694 5698 5700 5703 5705 5708
5710 5708 5706 5704 5702 5700 5698 5696 5693 5691 5688 5686 5684 5681 5679 5677 5674 5672 5669 5667 5664 5662 5660 5658 5657 5655 5653 5651 5649 5648 5646 5645 5644 5644 5643 5643 5642 5641 5641 5641 5641 5641 5641 5641 5642 5643 5644 5645 5646 5647 5649 5651 5653 5654 5656 5658 5660 5663 5665 5667 5669 5671 5673 5675 5678 5680 5683 5686 5689 5692 5695 5698 5700 5703
5709 5707 5705 5703 5701 5699 5696 5694 5691 5689 5687 5684 5682 5680 5677 5674 5672 5670 5668 5665 5663 5660 5658 5656 5654 5652 5650 5648 5646 5645 5643 5642 5641 5640 5640 5639 5638 5638 5638 5637 5637 5637 5638 5638 5638 5639 5640 5641 5642 5643 5646 5648 5649 5651 5652 5654 5655 5658 5660 5662 5664 5666 5668 5670 5673 5675 5678 5681 5684 5687 5690 5693 5695 5698
5708 5706 5704 5702 5700 5697 5695 5692 5690 5687 5685 5682 5680 5678 5675 5673 5670 5668 5666 5663 5661 5658 5656 5654 5651 5649 5647 5645 5643 5641 5640 5638 5637 5637 5636 5635 5634 5634 5634 5634 5633 5633 5634 5634 5634 5635 5636 5637 5639 5641 5643 5644 5645 5646 5648 5649 5651 5654 5656 5658 5660 5662 5663 5666 5668 5671 5673 5676 5679 5682 5685 5688 5690 5693
5707 5705 5703 5701 5699 5696 5694 5691 5688 5686 5683 5681 5678 5676 5673 5671 5669 5667 5664 5662 5658 5655 5652 5650 5648 5645 5642 5640 5638 5636 5635 5634 5633 5632 5632 5631 5630 5630 5630 5630 5630 5630 5630 5630 5630 5631 5632 5634 5636 5637 5639 5640 5641 5642 5643 5645 5648 5650 5652 5654 5656 5658 5660 5662 5664 5667 5669 5672 5675 5677 5680 5683 5686 5688
5706 5704 5701 5699 5697 5695 5692 5689 5686 5684 5681 5679 5677 5675 5672 5670 5667 5665 5663 5660 5656 5653 5649 5646 5643 5640 5637 5635 5632 5630 5629 5628 5627 5626 5626 5625 5625 5625 5625 5626 5626 5626 5626 5626 5626 5627 5628 5630 5632 5634 5635 5636 5636 5638 5640 5642 5644 5646 5648 5651 5653 5655 5657 5659 5661 5663 5665 5668 5671 5673 5676 5679 5681 5684
5705 5702 5700 5698 5695 5693 5690 5687 5685 5682 5679 5677 5675 5673 5671 5668 5666 5664 5661 5658 5655 5651 5647 5643 5639 5636 5632 5629 5627 5625 5623 5622 5621 5620 5620 5619 5619 5620 5621 5622 5622 5622 5622 5622 5622 5624 5626 5628 5629 5631 5632 5633 5634 5635 5638 5640 5641 5644 5646 5648 5649 5651 5653 5655 5658 5660 5662 5665 5667 5670 5673 5675 5678 5680
5704 5701 5699 5697 5694 5692 5689 5686 5683 5680 5678 5676 5674 5671 5669 5667 5664 5662 5659 5656 5652 5649 5644 5639 5635 5631 5628 5625 5622 5620 5617 5616 5615 5614 5614 5614 5615 5616 5617 5617 5617 5617 5618 5619 5620 5621 5624 5626 5627 5628 5629 5631 5632 5634 5636 5638 5640 5641 5643 5644 5646 5648 5651 5653 5655 5658 5660 5662 5665 5667 5670 5672 5675 5676